Regional Weather Roundup
Issued by NWS

Home | Current Version | Previous Version | Text Only | Print | Product List | Glossary On
Versions: 1 2 3 4 5 6 7 8 9 10 11 12 13 14 15 16 17 18 19 20 21 22 23 24 25 26 27 28 29 30 31 32 33 34 35 36 37 38 39 40 41 42 43 44 45 46 47 48 49 50
000
ASUS43 KDTX 251301
RWRMI
MICHIGAN HOURLY REGIONAL WEATHER ROUNDUP
NATIONAL WEATHER SERVICE DETROIT/PONTIAC MI
900 AM EDT THU MAY 25 2017

NOTE: "FAIR" INDICATES FEW OR NO CLOUDS BELOW 12,000 FEET WITH NO
SIGNIFICANT WEATHER AND/OR OBSTRUCTION TO VISIBILITY.

MIZ047>049-052>055-059>063-066>070-074>076-081>083-251400-
SOUTHEAST LOWER MICHIGAN

CITY           SKY/WX    TMP DP  RH WIND       PRES   REMARKS
ADRIAN         CLOUDY    58  57  97 NE8       29.47R
ALMA           LGT RAIN  55  54  99 N7        29.55S
ANN ARBOR      CLOUDY    59  58  96 N7        29.47R FOG
BAD AXE        DRIZZLE   54  54 100 NE10      29.55S
CARO           CLOUDY    56  55  98 N5        29.52S FOG
DETROIT CITY   LGT RAIN  58  57  97 NE7       29.48R FOG
DETROIT        CLOUDY    59  58  96 NE7       29.47R FOG
FLINT          CLOUDY    56  55  97 NE10      29.51S FOG
GROSSE ILE     CLOUDY    58  56  94 NE5       29.45S
HILLSDALE      RAIN      57  55  94 N8        29.47S
HOWELL         FOG       56  55  94 NE5       29.50R VSB 1

CITY           SKY/WX    TMP DP  RH WIND       PRES   REMARKS
JACKSON        CLOUDY    57  56  96 NE9       29.49R FOG
LAMBERTVILLE   CLOUDY    59  57  95 NE6       29.45R
LANSING        CLOUDY    57  53  86 NE9       29.52R FOG
LAPEER         CLOUDY    56  55  97 NE7       29.51R FOG
MASON          CLOUDY    56  56  99 NE8       29.51R FOG
MONROE         CLOUDY    58  57  96 N6        29.45S
MT. CLEMENS    DRIZZLE   58  58 100 NE9       29.47R FOG
PONTIAC        LGT RAIN  58  55  90 NE7       29.47S FOG
PORT HOPE        N/A     51  50  96 NE15      29.54S
PORT HURON     DRIZZLE   57  55  94 NE5       29.50R
TRI CITIES     CLOUDY    54  53  97 NE14      29.55S FOG
MIDLAND        CLOUDY    55  53  92 N6        29.55S
TROY           DRIZZLE   58  56  94 NE5       29.50R
SAGINAW HB     CLOUDY    54  52  94 N12       29.53S FOG
$$
MIZ043>046-050>051-056>058-064>065-071>073-077>080-251400-
SOUTHWEST LOWER MICHIGAN

CITY           SKY/WX    TMP DP  RH WIND       PRES   REMARKS
BATTLE CREEK   CLOUDY    57  56  96 N13       29.51R FOG
BENTON HARBOR  CLOUDY    54  51  90 VRB6      29.53R
BIG RAPIDS     DRIZZLE   55  52  91 NE6       29.57R
COLDWATER      HVY RAIN  57  57 100 NE9       29.49R
FREMONT        CLOUDY    57  54  91 NE8       29.56S
HOLLAND        CLOUDY    59  54  83 N9        29.54S
GRAND RAPIDS   CLOUDY    56  56 100 NE12      29.52F
IONIA          CLOUDY    55  55  97 NE13      29.52S FOG
KALAMAZOO      CLOUDY    57  54  89 N12       29.51S FOG
LUDINGTON      CLOUDY    58  53  84 NE7G17    29.59S
MARSHALL       FOG       56  56  98 CALM      29.50R VSB 1
MOUNT PLEASANT CLOUDY    55  53  95 NE6       29.56S
MUSKEGON       CLOUDY    59  54  83 N6        29.56S
$$
MIZ016>042-251400-
NORTHERN LOWER MICHIGAN

CITY           SKY/WX    TMP DP  RH WIND       PRES   REMARKS
ALPENA         LGT RAIN  55  54  96 NE14      29.63R FOG
BEAVER ISLAND  LGT RAIN  54  52  92 NE7       29.68S
BELLAIRE       LGT RAIN  54  51  90 N6        29.64S
CADILLAC       DRIZZLE   54  53  97 NE7       29.59S
CHARLEVOIX     LGT RAIN  55  53  94 E8        29.68S
GAYLORD        LGT RAIN  53  49  86 NE9       29.64S FOG
GRAYLING       CLOUDY    54  53  97 NE12      29.62S
HARBOR SPRINGS CLOUDY    56  54  90 NE9       29.66S
HOUGHTON LAKE  CLOUDY    54  52  93 NE13      29.61R
MANISTEE       MOSUNNY   59  53  80 NE12      29.60S
OSCODA         DRIZZLE   51  50  96 NE13G18   29.59R
PELLSTON       CLOUDY    57  51  80 NE10      29.67S
ROGERS CITY    DRIZZLE   49  48  96 NW3       29.65F
TRAVERSE CITY  LGT RAIN  52  49  89 NW6       29.62S
$$
MIZ007>008-015-251400-
EASTERN UPPER MICHIGAN

CITY           SKY/WX    TMP DP  RH WIND       PRES   REMARKS
KINROSS        CLOUDY    56  53  90 NE8       29.70R
MACKINAC ISLAN LGT RAIN  54  54 100 NE7       29.68S
NEWBERRY       CLOUDY    50  49  97 N7        29.70S
S. S. MARIE    LGT RAIN  57  52  83 NE6       29.70R
MUNISING         N/A     46  40  79 NE5       29.73S
$$
MIZ004>006-011>014-085-251400-
CENTRAL UPPER MICHIGAN

CITY           SKY/WX    TMP DP  RH WIND       PRES   REMARKS
MANISTIQUE     CLOUDY    53  49  87 N8        29.70R
ESCANABA       MOSUNNY   52  46  80 N7        29.70S
MENOMINEE      SUNNY     56  49  77 VRB6      29.69R
SAWYER-GWINN   PTSUNNY   50  45  81 NE10      29.74R
$$
MIZ001>003-009>011-084-251400-
WESTERN UPPER MICHIGAN

CITY           SKY/WX    TMP DP  RH WIND       PRES   REMARKS
IRON MOUNTAIN  SUNNY     55  45  68 N7        29.71S
HOUGHTON       SUNNY     56  43  61 E7        29.75S
COPPER HARBOR    N/A     45  37  73 CALM      29.76S
IRONWOOD       SUNNY     52  44  74 E7        29.76S
$$

ABBREVIATIONS USED IN REMARKS
   TC - TEMPERATURE IN CELSIUS
  WCI - WIND CHILL INDEX
   HX - HEAT INDEX
  VSB - VISIBILITY





USA.gov is the U.S. government's official web portal to all federal, state and local government web resources and services.